Regional Weather Roundup
Issued by NWS Goodland, KS

Home | Current Version | Previous Version | Text Only | Print | Product List | Glossary On
Versions: 1 2 3 4 5 6 7 8 9 10 11 12 13 14 15 16 17 18 19 20 21 22 23 24 25 26 27 28 29 30 31 32 33 34 35 36 37 38 39 40 41 42 43 44 45 46 47 48 49 50
000
ASUS43 KGLD 270908
RWRGLD

GOODLAND FORECAST AREA HOURLY WEATHER ROUNDUP
NATIONAL WEATHER SERVICE GOODLAND KS
300 AM MDT TUE SEP 27 2016

...OFFICIAL OBSERVATIONS...

CITY           SKY/WX    TMP DP  RH WIND       PRES   REMARKS
GOODLAND KS    CLEAR     49  40  71 W7        30.19F
HILL CITY KS   CLEAR     49  44  83 W7        30.12F
IMPERIAL NEB   CLEAR     47  40  76 NW3       30.18F
MCCOOK NEB     CLEAR     47  42  83 W6        30.14F
AKRON CO       CLEAR     51  36  56 SW8       30.24F
BURLINGTON CO  CLEAR     48  39  71 W3        30.22F
LIMON CO       CLEAR     36  27  69 N7        30.28F
$$

...UNOFFICIAL OBSERVATIONS...

CITY           SKY/WX    TMP DP  RH WIND       PRES   REMARKS
COLBY KS       CLEAR     46  43  87 W8        30.18S
LENORA KS        N/A     51  32  48 MISG        N/A
NORTON KS      CLEAR     45  37  76 SW6       30.11F
SHARON SPRINGS   N/A     49  40  71 W5          N/A
KIT CARSON CO    N/A     45  36  71 CALM        N/A
$$



USA.gov is the U.S. government's official web portal to all federal, state and local government web resources and services.